Time,TemperatureF,DewpointF,PressureIn,WindDirection,WindDirectionDegrees,WindSpeedMPH,WindSpeedGustMPH,Humidity,HourlyPrecipIn,Conditions,Clouds,dailyrainin,SoftwareType,DateUTC
2013-03-18 00:02:00,37.0,35.0,29.80,ESE,121,1.0,6.0,93,0.02,,,0.02,,2013-03-18 05:02:00,
2013-03-18 00:12:00,37.0,35.0,29.80,ESE,121,1.0,6.0,93,0.02,,,0.02,,2013-03-18 05:12:00,
2013-03-18 00:22:00,36.0,34.0,29.84,SE,143,0.0,1.0,93,0.02,,,0.02,,2013-03-18 05:22:00,
2013-03-18 00:32:00,36.0,34.0,29.83,SE,137,0.0,2.0,93,0.00,,,0.02,,2013-03-18 05:32:00,
2013-03-18 00:43:00,36.0,34.0,29.83,SE,137,0.0,2.0,93,0.00,,,0.02,,2013-03-18 05:43:00,
2013-03-18 00:52:00,37.0,35.0,29.83,ESE,103,0.0,2.0,93,0.00,,,0.02,,2013-03-18 05:52:00,
2013-03-18 01:02:00,36.0,34.0,29.84,NNW,337,0.0,3.0,93,0.00,,,0.02,,2013-03-18 06:02:00,
2013-03-18 01:12:00,36.0,34.0,29.84,NNW,337,0.0,3.0,93,0.00,,,0.02,,2013-03-18 06:12:00,
2013-03-18 01:22:00,37.0,35.0,29.85,NW,316,0.0,0.0,93,0.00,,,0.02,,2013-03-18 06:22:00,
2013-03-18 01:32:00,37.0,35.0,29.85,North,349,0.0,1.0,93,0.00,,,0.02,,2013-03-18 06:32:00,
2013-03-18 01:42:00,37.0,35.0,29.85,North,349,0.0,1.0,93,0.00,,,0.02,,2013-03-18 06:42:00,
2013-03-18 01:52:00,37.0,35.0,29.85,NW,323,0.0,0.0,93,0.00,,,0.02,,2013-03-18 06:52:00,
2013-03-18 02:02:00,37.0,35.0,29.84,NW,323,0.0,0.0,93,0.00,,,0.02,,2013-03-18 07:02:00,
2013-03-18 02:12:00,37.0,35.0,29.84,NW,323,0.0,0.0,93,0.00,,,0.02,,2013-03-18 07:12:00,
2013-03-18 02:22:00,37.0,35.0,29.83,SE,139,1.0,1.0,93,0.00,,,0.02,,2013-03-18 07:22:00,
2013-03-18 02:32:00,37.0,35.0,29.81,ENE,58,5.0,7.0,93,0.00,,,0.02,,2013-03-18 07:32:00,
2013-03-18 02:42:00,37.0,35.0,29.81,ENE,58,5.0,7.0,93,0.00,,,0.02,,2013-03-18 07:42:00,
2013-03-18 02:52:00,37.0,35.0,29.84,ESE,103,0.0,7.0,94,0.00,,,0.02,,2013-03-18 07:52:00,
2013-03-18 03:02:00,36.0,34.0,29.83,East,96,1.0,3.0,94,0.00,,,0.02,,2013-03-18 08:02:00,
2013-03-18 03:12:00,36.0,34.0,29.83,East,96,1.0,3.0,94,0.00,,,0.02,,2013-03-18 08:12:00,
2013-03-18 03:22:00,36.0,34.0,29.83,ENE,63,0.0,2.0,94,0.00,,,0.02,,2013-03-18 08:22:00,
2013-03-18 03:32:00,37.0,35.0,29.85,WNW,287,0.0,0.0,94,0.00,,,0.02,,2013-03-18 08:32:00,
2013-03-18 03:43:00,37.0,35.0,29.85,WNW,287,0.0,0.0,94,0.00,,,0.02,,2013-03-18 08:43:00,
2013-03-18 03:52:00,37.0,35.0,29.85,NW,304,0.0,0.0,93,0.00,,,0.02,,2013-03-18 08:52:00,
2013-03-18 04:02:00,37.0,35.0,29.87,WNW,283,0.0,1.0,93,0.00,,,0.02,,2013-03-18 09:02:00,
2013-03-18 04:12:00,37.0,35.0,29.87,WNW,283,0.0,1.0,93,0.00,,,0.02,,2013-03-18 09:12:00,
2013-03-18 04:22:00,37.0,35.0,29.87,NW,316,3.0,5.0,94,0.00,,,0.02,,2013-03-18 09:22:00,
2013-03-18 04:33:00,37.0,35.0,29.87,NW,318,0.0,6.0,94,0.00,,,0.02,,2013-03-18 09:33:00,
2013-03-18 04:42:00,37.0,35.0,29.87,NW,318,0.0,6.0,94,0.00,,,0.02,,2013-03-18 09:42:00,
2013-03-18 04:53:00,37.0,35.0,29.87,NW,304,3.0,5.0,94,0.00,,,0.02,,2013-03-18 09:53:00,
2013-03-18 05:03:00,37.0,36.0,29.87,WNW,288,2.0,8.0,95,0.00,,,0.02,,2013-03-18 10:03:00,
2013-03-18 05:12:00,37.0,36.0,29.87,WNW,288,2.0,8.0,95,0.00,,,0.02,,2013-03-18 10:12:00,
2013-03-18 05:23:00,37.0,35.0,29.88,NW,314,0.0,7.0,94,0.00,,,0.02,,2013-03-18 10:23:00,
2013-03-18 05:33:00,37.0,36.0,29.89,West,259,3.0,9.0,95,0.00,,,0.02,,2013-03-18 10:33:00,
2013-03-18 05:42:00,37.0,36.0,29.89,West,259,3.0,9.0,95,0.00,,,0.02,,2013-03-18 10:42:00,
2013-03-18 05:53:00,37.0,36.0,29.88,NW,304,1.0,7.0,95,0.00,,,0.02,,2013-03-18 10:53:00,
2013-03-18 06:03:00,37.0,35.0,29.89,WNW,303,3.0,4.0,94,0.00,,,0.02,,2013-03-18 11:03:00,
2013-03-18 06:12:00,37.0,35.0,29.89,WNW,303,3.0,4.0,94,0.00,,,0.02,,2013-03-18 11:12:00,
2013-03-18 06:22:00,37.0,35.0,29.90,WNW,303,3.0,3.0,94,0.00,,,0.02,,2013-03-18 11:22:00,
2013-03-18 06:32:00,37.0,35.0,29.90,WNW,303,3.0,3.0,94,0.00,,,0.02,,2013-03-18 11:32:00,
2013-03-18 06:42:00,37.0,35.0,29.90,WNW,303,3.0,3.0,94,0.00,,,0.02,,2013-03-18 11:42:00,
2013-03-18 06:52:00,37.0,35.0,29.91,WNW,303,3.0,3.0,94,0.00,,,0.02,,2013-03-18 11:52:00,
2013-03-18 07:02:00,37.0,35.0,29.92,WNW,303,3.0,3.0,94,0.00,,,0.02,,2013-03-18 12:02:00,
2013-03-18 07:12:00,37.0,35.0,29.92,WNW,303,3.0,3.0,94,0.00,,,0.02,,2013-03-18 12:12:00,
2013-03-18 07:22:00,37.0,35.0,29.92,WNW,303,3.0,3.0,94,0.00,,,0.02,,2013-03-18 12:22:00,
2013-03-18 07:32:00,37.0,35.0,29.93,WNW,303,3.0,3.0,94,0.00,,,0.02,,2013-03-18 12:32:00,
2013-03-18 07:42:00,37.0,35.0,29.93,WNW,303,3.0,3.0,94,0.00,,,0.02,,2013-03-18 12:42:00,
2013-03-18 07:52:00,37.0,35.0,29.93,WNW,303,3.0,3.0,94,0.00,,,0.02,,2013-03-18 12:52:00,
2013-03-18 08:02:00,37.0,35.0,29.95,WNW,303,3.0,3.0,94,0.00,,,0.02,,2013-03-18 13:02:00,
2013-03-18 08:12:00,37.0,35.0,29.95,WNW,303,3.0,3.0,94,0.00,,,0.02,,2013-03-18 13:12:00,
2013-03-18 08:22:00,37.0,35.0,29.95,WNW,303,3.0,3.0,94,0.00,,,0.02,,2013-03-18 13:22:00,
2013-03-18 08:32:00,37.0,34.0,29.96,NW,313,5.0,5.0,87,0.00,,,0.02,,2013-03-18 13:32:00,
2013-03-18 08:42:00,37.0,34.0,29.96,NW,313,5.0,5.0,87,0.00,,,0.02,,2013-03-18 13:42:00,
2013-03-18 08:52:00,37.0,33.0,29.96,NW,319,6.0,7.0,85,0.00,,,0.02,,2013-03-18 13:52:00,
2013-03-18 09:02:00,38.0,33.0,29.96,NW,308,2.0,7.0,81,0.00,,,0.02,,2013-03-18 14:02:00,
2013-03-18 09:12:00,38.0,33.0,29.96,NW,308,2.0,7.0,81,0.00,,,0.02,,2013-03-18 14:12:00,
2013-03-18 09:22:00,39.0,32.0,29.97,NW,311,7.0,9.0,77,0.00,,,0.02,,2013-03-18 14:22:00,
2013-03-18 09:32:00,39.0,32.0,29.98,NNW,331,4.0,12.0,75,0.00,,,0.02,,2013-03-18 14:32:00,
2013-03-18 09:42:00,39.0,32.0,29.98,NNW,331,4.0,12.0,75,0.00,,,0.02,,2013-03-18 14:42:00,
2013-03-18 09:52:00,40.0,31.0,29.98,NW,311,7.0,14.0,70,0.00,,,0.02,,2013-03-18 14:52:00,
2013-03-18 10:02:00,41.0,31.0,29.98,NW,322,2.0,15.0,66,0.00,,,0.02,,2013-03-18 15:02:00,
2013-03-18 10:12:00,41.0,31.0,29.98,NW,322,2.0,15.0,66,0.00,,,0.02,,2013-03-18 15:12:00,
2013-03-18 10:22:00,42.0,30.0,30.00,NNW,328,6.0,12.0,62,0.00,,,0.02,,2013-03-18 15:22:00,
2013-03-18 10:33:00,42.0,30.0,30.00,NW,323,4.0,10.0,62,0.00,,,0.02,,2013-03-18 15:33:00,
2013-03-18 10:42:00,42.0,30.0,30.00,NW,323,4.0,10.0,62,0.00,,,0.02,,2013-03-18 15:42:00,
2013-03-18 10:52:00,43.0,30.0,30.00,NW,315,3.0,10.0,60,0.00,,,0.02,,2013-03-18 15:52:00,
2013-03-18 11:03:00,44.0,31.0,30.00,North,7,1.0,10.0,59,0.00,,,0.02,,2013-03-18 16:03:00,
2013-03-18 11:12:00,44.0,31.0,30.00,North,7,1.0,10.0,59,0.00,,,0.02,,2013-03-18 16:12:00,
2013-03-18 11:22:00,45.0,30.0,30.00,WNW,297,3.0,9.0,56,0.00,,,0.02,,2013-03-18 16:22:00,
2013-03-18 11:32:00,46.0,30.0,30.01,WSW,250,5.0,12.0,53,0.00,,,0.02,,2013-03-18 16:32:00,
2013-03-18 11:42:00,46.0,30.0,30.01,WSW,250,5.0,12.0,53,0.00,,,0.02,,2013-03-18 16:42:00,
2013-03-18 11:52:00,47.0,29.0,30.01,North,350,8.0,11.0,50,0.00,,,0.02,,2013-03-18 16:52:00,
2013-03-18 12:02:00,48.0,28.0,30.01,NW,310,7.0,12.0,46,0.00,,,0.02,,2013-03-18 17:02:00,
2013-03-18 12:12:00,48.0,28.0,30.01,NW,310,7.0,12.0,46,0.00,,,0.02,,2013-03-18 17:12:00,
2013-03-18 12:22:00,49.0,28.0,30.01,NNW,347,5.0,13.0,44,0.00,,,0.02,,2013-03-18 17:22:00,
2013-03-18 12:32:00,50.0,29.0,30.01,WNW,294,6.0,15.0,44,0.00,,,0.02,,2013-03-18 17:32:00,
2013-03-18 12:42:00,50.0,29.0,30.01,WNW,294,6.0,15.0,44,0.00,,,0.02,,2013-03-18 17:42:00,
2013-03-18 12:52:00,50.0,29.0,30.01,WNW,285,9.0,14.0,44,0.00,,,0.02,,2013-03-18 17:52:00,
2013-03-18 13:02:00,51.0,28.0,30.01,WNW,295,6.0,17.0,40,0.00,,,0.02,,2013-03-18 18:02:00,
2013-03-18 13:12:00,51.0,28.0,30.01,WNW,295,6.0,17.0,40,0.00,,,0.02,,2013-03-18 18:12:00,
2013-03-18 13:22:00,52.0,28.0,30.01,WNW,300,6.0,15.0,39,0.00,,,0.02,,2013-03-18 18:22:00,
2013-03-18 13:32:00,52.0,29.0,30.01,NW,308,6.0,17.0,41,0.00,,,0.02,,2013-03-18 18:32:00,
2013-03-18 13:42:00,52.0,29.0,30.01,NW,308,6.0,17.0,41,0.00,,,0.02,,2013-03-18 18:42:00,
2013-03-18 13:52:00,52.0,28.0,30.01,NW,316,12.0,17.0,39,0.00,,,0.02,,2013-03-18 18:52:00,
2013-03-18 14:02:00,53.0,29.0,30.02,NNW,328,5.0,16.0,39,0.00,,,0.02,,2013-03-18 19:02:00,
2013-03-18 14:12:00,53.0,29.0,30.02,NNW,328,5.0,16.0,39,0.00,,,0.02,,2013-03-18 19:12:00,
2013-03-18 14:22:00,53.0,27.0,30.01,West,274,9.0,16.0,37,0.00,,,0.02,,2013-03-18 19:22:00,
2013-03-18 14:32:00,54.0,23.0,30.01,WNW,290,12.0,15.0,30,0.00,,,0.02,,2013-03-18 19:32:00,
2013-03-18 14:42:00,54.0,23.0,30.01,WNW,290,12.0,15.0,30,0.00,,,0.02,,2013-03-18 19:42:00,
2013-03-18 14:52:00,54.0,23.0,30.01,NNW,340,4.0,17.0,30,0.00,,,0.02,,2013-03-18 19:52:00,
2013-03-18 15:12:00,54.0,23.0,30.00,WNW,290,5.0,24.0,30,0.00,,,0.02,,2013-03-18 20:12:00,
2013-03-18 15:22:00,55.0,23.0,30.01,NW,310,7.0,17.0,29,0.00,,,0.02,,2013-03-18 20:22:00,
2013-03-18 15:32:00,55.0,22.0,30.00,NW,322,16.0,18.0,27,0.00,,,0.02,,2013-03-18 20:32:00,
2013-03-18 15:42:00,55.0,22.0,30.00,NW,322,16.0,18.0,27,0.00,,,0.02,,2013-03-18 20:42:00,
2013-03-18 15:52:00,55.0,23.0,30.01,NW,319,15.0,26.0,28,0.00,,,0.02,,2013-03-18 20:52:00,
2013-03-18 16:02:00,55.0,22.0,30.00,NW,316,16.0,25.0,27,0.00,,,0.02,,2013-03-18 21:02:00,
2013-03-18 16:12:00,55.0,22.0,30.00,NW,316,16.0,25.0,27,0.00,,,0.02,,2013-03-18 21:12:00,
2013-03-18 16:22:00,55.0,23.0,30.01,NW,308,12.0,17.0,29,0.00,,,0.02,,2013-03-18 21:22:00,
2013-03-18 16:32:00,55.0,23.0,30.01,West,281,6.0,17.0,28,0.00,,,0.02,,2013-03-18 21:32:00,
2013-03-18 16:42:00,55.0,23.0,30.01,West,281,6.0,17.0,28,0.00,,,0.02,,2013-03-18 21:42:00,
2013-03-18 16:53:00,55.0,23.0,30.01,NW,304,9.0,17.0,29,0.00,,,0.02,,2013-03-18 21:53:00,
2013-03-18 17:03:00,54.0,23.0,30.01,NNW,329,7.0,16.0,30,0.00,,,0.02,,2013-03-18 22:03:00,
2013-03-18 17:13:00,54.0,23.0,30.01,NNW,329,7.0,16.0,30,0.00,,,0.02,,2013-03-18 22:13:00,
2013-03-18 17:23:00,54.0,24.0,30.01,NW,322,6.0,16.0,31,0.00,,,0.02,,2013-03-18 22:23:00,
2013-03-18 17:33:00,55.0,25.0,30.01,NNE,28,7.0,15.0,31,0.00,,,0.02,,2013-03-18 22:33:00,
2013-03-18 17:42:00,55.0,25.0,30.01,NNE,28,7.0,15.0,31,0.00,,,0.02,,2013-03-18 22:42:00,
2013-03-18 17:52:00,55.0,25.0,30.01,WNW,293,6.0,14.0,31,0.00,,,0.02,,2013-03-18 22:52:00,
2013-03-18 18:02:00,55.0,26.0,30.01,NE,49,6.0,15.0,32,0.00,,,0.02,,2013-03-18 23:02:00,
2013-03-18 18:12:00,55.0,26.0,30.01,NE,49,6.0,15.0,32,0.00,,,0.02,,2013-03-18 23:12:00,
2013-03-18 18:22:00,55.0,25.0,30.01,WNW,298,5.0,15.0,31,0.00,,,0.02,,2013-03-18 23:22:00,
2013-03-18 18:32:00,55.0,26.0,30.01,NNW,340,4.0,14.0,32,0.00,,,0.02,,2013-03-18 23:32:00,
2013-03-18 18:42:00,55.0,26.0,30.01,NNW,340,4.0,14.0,32,0.00,,,0.02,,2013-03-18 23:42:00,
2013-03-18 18:53:00,54.0,25.0,30.01,ENE,65,5.0,13.0,32,0.00,,,0.02,,2013-03-18 23:53:00,
2013-03-18 19:02:00,54.0,26.0,30.01,NW,322,8.0,14.0,33,0.00,,,0.02,,2013-03-19 00:02:00,
2013-03-18 19:12:00,54.0,26.0,30.01,NW,322,8.0,14.0,33,0.00,,,0.02,,2013-03-19 00:12:00,
2013-03-18 19:22:00,53.0,25.0,30.02,East,86,1.0,10.0,33,0.00,,,0.02,,2013-03-19 00:22:00,
2013-03-18 19:32:00,52.0,24.0,30.01,NNE,29,2.0,8.0,33,0.00,,,0.02,,2013-03-19 00:32:00,
2013-03-18 19:42:00,52.0,24.0,30.01,NNE,29,2.0,8.0,33,0.00,,,0.02,,2013-03-19 00:42:00,
2013-03-18 19:52:00,51.0,24.0,30.01,South,188,1.0,7.0,34,0.00,,,0.02,,2013-03-19 00:52:00,
2013-03-18 20:02:00,50.0,23.0,30.02,NNE,13,1.0,5.0,35,0.00,,,0.02,,2013-03-19 01:02:00,
2013-03-18 20:12:00,50.0,23.0,30.02,NNE,13,1.0,5.0,35,0.00,,,0.02,,2013-03-19 01:12:00,
2013-03-18 20:22:00,49.0,23.0,30.02,NE,52,3.0,6.0,36,0.00,,,0.02,,2013-03-19 01:22:00,
2013-03-18 20:32:00,48.0,23.0,30.03,NE,46,1.0,5.0,37,0.00,,,0.02,,2013-03-19 01:32:00,
2013-03-18 20:42:00,48.0,23.0,30.03,NE,46,1.0,5.0,37,0.00,,,0.02,,2013-03-19 01:42:00,
2013-03-18 20:52:00,47.0,22.0,30.03,NE,49,2.0,6.0,37,0.00,,,0.02,,2013-03-19 01:52:00,
2013-03-18 21:02:00,46.0,21.0,30.03,NW,322,3.0,7.0,37,0.00,,,0.02,,2013-03-19 02:02:00,
2013-03-18 21:12:00,46.0,21.0,30.03,NW,322,3.0,7.0,37,0.00,,,0.02,,2013-03-19 02:12:00,
2013-03-18 21:22:00,46.0,21.0,30.04,ENE,58,3.0,9.0,37,0.00,,,0.02,,2013-03-19 02:22:00,
2013-03-18 21:32:00,44.0,21.0,30.05,ENE,65,2.0,6.0,39,0.00,,,0.02,,2013-03-19 02:32:00,
2013-03-18 21:42:00,44.0,21.0,30.05,ENE,65,2.0,6.0,39,0.00,,,0.02,,2013-03-19 02:42:00,
2013-03-18 21:52:00,44.0,21.0,30.05,ENE,60,2.0,5.0,40,0.00,,,0.02,,2013-03-19 02:52:00,
2013-03-18 22:02:00,43.0,21.0,30.06,East,82,2.0,4.0,41,0.00,,,0.02,,2013-03-19 03:02:00,
2013-03-18 22:12:00,43.0,21.0,30.06,East,82,2.0,4.0,41,0.00,,,0.02,,2013-03-19 03:12:00,
2013-03-18 22:22:00,42.0,21.0,30.07,ENE,63,2.0,5.0,42,0.00,,,0.02,,2013-03-19 03:22:00,
2013-03-18 22:32:00,42.0,21.0,30.08,ENE,57,2.0,5.0,42,0.00,,,0.02,,2013-03-19 03:32:00,
2013-03-18 22:43:00,42.0,21.0,30.08,ENE,57,2.0,5.0,42,0.00,,,0.02,,2013-03-19 03:43:00,
2013-03-18 22:54:00,41.0,20.0,30.08,ENE,72,2.0,6.0,43,0.00,,,0.02,,2013-03-19 03:54:00,
2013-03-18 23:03:00,41.0,21.0,30.08,East,82,2.0,7.0,44,0.00,,,0.02,,2013-03-19 04:03:00,
2013-03-18 23:13:00,41.0,21.0,30.08,East,82,2.0,7.0,44,0.00,,,0.02,,2013-03-19 04:13:00,
2013-03-18 23:23:00,40.0,20.0,30.09,ENE,72,5.0,10.0,44,0.00,,,0.02,,2013-03-19 04:23:00,
2013-03-18 23:33:00,40.0,21.0,30.09,East,79,1.0,8.0,46,0.00,,,0.00,,2013-03-19 04:33:00,
2013-03-18 23:43:00,40.0,21.0,30.09,East,79,1.0,8.0,46,0.00,,,0.00,,2013-03-19 04:43:00,
2013-03-18 23:52:00,39.0,20.0,30.10,ESE,106,1.0,8.0,47,0.00,,,0.00,,2013-03-19 04:52:00,